Change the Weather History Date:

Thursday, July 25, 2013

  Actual Average Record
Temperature  
Mean Temperature 84 °F -  
Max Temperature 91 °F - - ()
Min Temperature 78 °F - - ()
Cooling Degree Days 20    
Growing Degree Days 34 (Base 50)    
Moisture  
Dew Point 76 °F    
Average Humidity 76    
Maximum Humidity 89    
Minimum Humidity 55    
Precipitation  
Precipitation 0.00 in - - ()
Sea Level Pressure  
Sea Level Pressure 29.70 in    
Wind  
Wind Speed 4 mph ()    
Max Wind Speed 12 mph    
Max Gust Speed -    
Visibility 5.9 miles    
Events Rain    
T = Trace of Precipitation, MM = Missing Value Source: Averaged Metar Reports

Daily Weather History Graph

Daily Weather History Graph

Search for Another Location

Airport or City:

Trip Planner

Search our weather history database for the weather conditions in past years. The results will help you decide how hot, cold, wet, or windy it might be!

Date:

Astronomy

Jul. 25, 2013 Rise Set
Actual Time 5:47 AM ICT 6:34 PM ICT
Civil Twilight 5:25 AM ICT 6:56 PM ICT
Nautical Twilight 4:58 AM ICT 7:23 PM ICT
Astronomical Twilight 4:31 AM ICT 7:50 PM ICT
Moon 8:39 PM ICT (7/25) 8:03 AM ICT (7/25)
Length of Visible Light 13h 31m
Length of Day
12h 46m
Waning Gibbous, 91% of the Moon is Illuminated
Jul 25
Waning Gibbous
Jul 30
Last Quarter
Aug 7
New
Aug 14
First Quarter
Aug 21
Full

Hourly Weather History & Observations

Time (ICT) Temp. Heat Index Dew Point Humidity Pressure Visibility Wind Dir Wind Speed Gust Speed Precip Events Conditions
12:00 AM 78.8 °F - 75.2 °F 89% 29.74 in 5.6 mi Calm Calm - N/A Rain Light Rain
12:30 AM 78.8 °F - 75.2 °F 89% 29.74 in 5.6 mi Calm Calm - N/A Rain Light Rain
1:00 AM 78.8 °F - 75.2 °F 89% 29.74 in 5.6 mi Calm Calm - N/A Rain Light Rain
7:00 AM 78.8 °F - 75.2 °F 89% 29.74 in 6.2 mi Calm Calm - N/A   Scattered Clouds
8:00 AM 80.6 °F 86.2 °F 75.2 °F 84% 29.74 in 6.2 mi Variable 2.3 mph - N/A   Scattered Clouds
8:30 AM 84.2 °F 92.3 °F 75.2 °F 74% 29.74 in 6.2 mi West 4.6 mph - N/A   Scattered Clouds
9:00 AM 84.2 °F 92.3 °F 75.2 °F 74% 29.74 in 6.2 mi WSW 6.9 mph - N/A   Scattered Clouds
9:30 AM 84.2 °F 92.3 °F 75.2 °F 74% 29.74 in 6.2 mi WSW 6.9 mph - N/A   Scattered Clouds
10:00 AM 86.0 °F 95.1 °F 75.2 °F 70% 29.74 in 6.2 mi West 8.1 mph - N/A   Scattered Clouds
11:00 AM 87.8 °F 97.6 °F 75.2 °F 66% 29.74 in 6.2 mi WSW 8.1 mph - N/A   Scattered Clouds
11:30 AM 87.8 °F 97.6 °F 75.2 °F 66% 29.74 in 6.2 mi WSW 10.4 mph - N/A   Scattered Clouds
12:00 PM 87.8 °F 95.6 °F 73.4 °F 62% 29.71 in 6.2 mi WSW 9.2 mph - N/A   Scattered Clouds
12:30 PM 89.6 °F 98.2 °F 73.4 °F 59% 29.71 in 6.2 mi West 9.2 mph - N/A   Scattered Clouds
1:00 PM 89.6 °F 98.2 °F 73.4 °F 59% 29.68 in 6.2 mi WSW 9.2 mph - N/A   Scattered Clouds
1:30 PM 91.4 °F 102.5 °F 75.2 °F 59% 29.68 in 6.2 mi North - - N/A   Scattered Clouds
2:00 PM 89.6 °F 98.2 °F 73.4 °F 59% 29.68 in 6.2 mi West 9.2 mph - N/A   Scattered Clouds
2:30 PM 91.4 °F 100.1 °F 73.4 °F 55% 29.68 in 6.2 mi WSW 9.2 mph - N/A   Scattered Clouds
3:00 PM 89.6 °F 102.2 °F 77.0 °F 66% 29.65 in 6.2 mi SW 11.5 mph - N/A   Scattered Clouds
3:30 PM 84.2 °F 94.1 °F 77.0 °F 79% 29.65 in 5.6 mi SW 9.2 mph - N/A Rain Light Rain
4:00 PM 86.0 °F 95.1 °F 75.2 °F 70% 29.65 in 5.6 mi SW 9.2 mph - N/A   Scattered Clouds
4:30 PM 86.0 °F 95.1 °F 75.2 °F 70% 29.65 in 6.2 mi SW 9.2 mph - N/A   Scattered Clouds
5:00 PM 86.0 °F 95.1 °F 75.2 °F 70% 29.65 in 6.2 mi WSW 8.1 mph - N/A   Scattered Clouds
5:30 PM 86.0 °F 96.9 °F 77.0 °F 74% 29.65 in 6.2 mi WSW 5.8 mph - N/A   Scattered Clouds
6:00 PM 86.0 °F 96.9 °F 77.0 °F 74% 29.65 in 6.2 mi WSW 4.6 mph - N/A   Scattered Clouds
6:30 PM 84.2 °F 94.1 °F 77.0 °F 79% 29.65 in 5.6 mi Variable 3.5 mph - N/A Rain Light Rain
7:00 PM 82.4 °F 90.9 °F 77.0 °F 84% 29.65 in 5.6 mi West 6.9 mph - N/A Rain Light Rain
7:30 PM 82.4 °F 90.9 °F 77.0 °F 84% 29.68 in 5.6 mi WSW 3.5 mph - N/A   Scattered Clouds
8:00 PM 82.4 °F 90.9 °F 77.0 °F 84% 29.68 in 5.6 mi SW 4.6 mph - N/A   Scattered Clouds
8:30 PM 82.4 °F 90.9 °F 77.0 °F 84% 29.71 in 5.6 mi WSW 3.5 mph - N/A   Scattered Clouds
9:00 PM 82.4 °F 90.9 °F 77.0 °F 84% 29.71 in 5.6 mi SW 3.5 mph - N/A   Scattered Clouds
9:30 PM 82.4 °F 90.9 °F 77.0 °F 84% 29.71 in 5.6 mi WSW 3.5 mph - N/A   Scattered Clouds
10:00 PM 82.4 °F 90.9 °F 77.0 °F 84% 29.71 in 5.6 mi West 4.6 mph - N/A   Scattered Clouds
10:30 PM 82.4 °F 90.9 °F 77.0 °F 84% 29.74 in 5.6 mi WSW 3.5 mph - N/A   Scattered Clouds
11:00 PM 82.4 °F 90.9 °F 77.0 °F 84% 29.74 in 5.6 mi WSW 4.6 mph - N/A   Scattered Clouds
11:30 PM 80.6 °F 87.1 °F 77.0 °F 89% 29.71 in 5.6 mi SW 4.6 mph - N/A   Scattered Clouds